Flag for Poland Weather past 2 weeks in Gdynia, Poland

Now
48 °F

Passing clouds.


Feels Like: 45 °F
Forecast: 46 / 59 °F
Wind: 7 mph from Northeast

Location: Gdansk-Rebiechowo


UV Index: 3 (Moderate)

Visibility: N/A


Pressure: 30.21 "Hg

Humidity: 76%

Dew point: 41 °F

Location of GdyniaLocation

Historic Weather in Gdynia

°F

Gdynia temperature yesterday

Maximum temperature yesterday: 61 °F (at 2:00 PM)
Minimum temperature yesterday: 43 °F (at 5:00 AM)
Average temperature yesterday: 51 °F

Past Weeks' High & Low Weather Summary

 TemperatureHumidityPressure
High66 °F (Apr 22, 12:30 PM)100% (Apr 9, 4:00 PM)30.39 "Hg (Apr 9, 4:00 PM)
Low28 °F (Apr 17, 4:00 AM)29% (Apr 16, 5:00 PM)29.53 "Hg (Apr 14, 1:00 PM)
Average47 °F73%29.98 "Hg
* Reported Midnight between Apr 8 and Apr 9 — Apr 24 12:30 AM, Gdynia, Weather by CustomWeather, © 2014

Note: Actual official high and low records may vary slightly from our data, if they occured in-between our weather recording intervals... More about our weather records

Advertising

Historic Weather Conditions — Data for Previous 24 hours

 ConditionsComfort  
Time TempWeatherWind HumidityBarometerVisibility
12:30 AM
Apr 24
48 °FPassing clouds.7 mph76%30.21 "HgN/A
12:00 AM46 °FPassing clouds.7 mph82%30.18 "HgN/A
11:30 PM
Apr 23
45 °FPassing clouds.5 mph87%30.18 "HgN/A
11:00 PM43 °FPassing clouds.3 mph87%30.21 "HgN/A
10:30 PM43 °FClear.5 mph87%30.21 "Hg10 mi
10:00 PM43 °FClear.5 mph87%30.21 "Hg10 mi
9:30 PM45 °FClear.7 mph81%30.21 "Hg10 mi
9:00 PM46 °FSunny.3 mph76%30.18 "Hg10 mi
8:30 PM46 °FPassing clouds.6 mph76%30.18 "HgN/A
8:00 PM48 °FPassing clouds.7 mph71%30.18 "HgN/A
7:30 PM50 °FPassing clouds.6 mph67%30.18 "HgN/A
7:00 PM52 °FPassing clouds.5 mph67%30.18 "HgN/A
6:30 PM52 °FPassing clouds.6 mph62%30.15 "HgN/A
6:00 PM55 °FPassing clouds.8 mph55%30.15 "HgN/A
5:30 PM55 °FPassing clouds.8 mph55%30.15 "HgN/A
5:00 PM55 °FSunny.10 mph51%30.15 "Hg10 mi
4:30 PM57 °FPassing clouds.10 mph48%30.15 "HgN/A
4:00 PM57 °FSunny.13 mph48%30.15 "Hg10 mi
3:30 PM59 °FPassing clouds.15 mph42%30.15 "HgN/A
3:00 PM59 °FPassing clouds.15 mph45%30.15 "HgN/A
2:30 PM59 °FPassing clouds.14 mph42%30.15 "HgN/A
2:00 PM61 °FPassing clouds.13 mph45%30.15 "HgN/A
1:30 PM59 °FPassing clouds.12 mph48%30.15 "HgN/A
1:00 PM59 °FPassing clouds.13 mph48%30.15 "HgN/A
12:30 PM59 °FPassing clouds.9 mph51%30.15 "HgN/A
12:00 PM59 °FPassing clouds.9 mph51%30.15 "HgN/A
11:30 AM59 °FPassing clouds.8 mph55%30.15 "HgN/A
11:00 AM59 °FPassing clouds.10 mph55%30.15 "HgN/A
10:30 AM57 °FPassing clouds.6 mph63%30.12 "HgN/A
10:00 AM57 °FPassing clouds.6 mph67%30.12 "HgN/A
9:30 AM55 °FSunny.6 mph67%30.12 "Hg10 mi
9:00 AM55 °FPassing clouds.5 mph63%30.09 "HgN/A
8:30 AM55 °FPassing clouds.3 mph59%30.09 "HgN/A
8:00 AM50 °FSunny.1 mph88%30.09 "Hg10 mi
7:30 AM46 °FClear.No wind93%30.09 "Hg5 mi
7:00 AM45 °FClear.2 mph93%30.09 "Hg5 mi
6:30 AM43 °FClear.2 mph93%30.09 "Hg5 mi
6:00 AM43 °FClear.2 mph93%30.07 "Hg4 mi
5:30 AM43 °FClear.1 mph93%30.07 "Hg4 mi
5:00 AM43 °FClear.1 mph93%30.07 "Hg10 mi
4:30 AM45 °FClear.2 mph93%30.07 "Hg10 mi
4:00 AM45 °FClear.1 mph93%30.04 "Hg10 mi
3:30 AM45 °FClear.2 mph93%30.04 "Hg10 mi
3:00 AM45 °FClear.2 mph93%30.04 "Hg10 mi
2:30 AM45 °FClear.3 mph93%30.04 "Hg10 mi
2:00 AM46 °FClear.2 mph87%30.04 "Hg5 mi
1:30 AM46 °FClear.2 mph93%30.04 "Hg5 mi
1:00 AM46 °FClear.1 mph93%30.04 "Hg5 mi
Weather by CustomWeather, © 2014

See weather overview